Vertical_Velocity
-1 -1 -1 -2 -1 -1 -0 -1 -2 -1 -2 -0 -0 3 -0 -2 -2 -3 -1 1 0 0 0 -0 0 -0 -1 -1 -0 -1 -1 -1 -1
0 -0 -1 -0 -0 0 -1 -1 -2 -2 -0 -1 -1 -2 0 0 -2 -2 -2 -2 -1 -0 -1 -2 -1 0 -1 -0 -0 0 -0 -1 -1
-0 0 1 -0 -0 1 0 -0 -1 -1 -1 1 -1 -0 -1 0 0 -1 -2 -1 0 -0 -0 -0 -1 -1 -1 -1 -1 -1 -1 -1 -1
-0 -0 0 1 -0 -0 -0 -1 -1 -1 -1 1 0 -0 -1 -1 0 -0 -1 -3 -1 -1 -1 -1 -0 0 -0 -0 -1 -1 -0 -1 -1
-0 -1 0 1 1 0 -0 -0 -2 -1 -1 -1 1 -0 -0 1 1 -0 -0 0 -1 0 -1 -1 -0 -0 -0 -1 0 -0 0 -1 -1
-1 1 2 0 2 1 1 -0 -1 -0 -1 -0 -1 2 -2 -2 -1 -0 0 -0 -1 -0 -1 -1 -1 -1 -0 0 -1 -1 -0 -1 -1
0 -2 -1 2 -1 0 -0 -0 -1 -1 -1 -0 -2 0 1 1 -1 -1 -2 -1 -1 -1 -1 -1 -1 -1 0 -1 -1 -0 -1 -1 -1
2 1 0 0 2 3 1 -0 -1 -1 -1 -1 0 0 1 -0 1 2 1 -1 -1 -2 -1 -2 -2 -1 -1 0 -0 -1 -1 -1 -1
2 1 -0 0 -2 1 0 1 0 -1 -2 -2 -1 1 2 1 0 1 -0 0 -0 -0 -0 -1 0 0 -0 0 0 1 0 -1 -1
1 2 0 1 -2 -0 1 1 -0 -0 -1 -1 -1 -1 1 2 1 2 -0 1 0 1 -0 -1 -2 -2 -2 -1 -0 0 0 -0 0
2 2 1 -0 -0 2 -1 0 -0 -1 -1 -1 0 1 1 2 1 1 0 -1 -1 0 -1 -0 1 -0 -0 -0 -0 -1 -1 1 0
2 3 1 3 1 1 0 1 -1 1 -0 2 -4 -1 0 2 1 2 -1 0 -1 -1 1 2 1 0 1 0 -0 -1 -2 -2 -1
5 2 1 11 3 10 -0 1 -0 1 0 1 2 -0 -0 1 1 1 1 -0 0 -0 -0 1 1 -0 -1 -1 0 -0 -1 -1 -1
1 3 6 8 9 1 1 1 -0 -1 1 1 -1 1 1 -0 -1 -0 1 1 -0 -0 -1 0 -1 1 0 -1 -0 0 -0 1 -0
5 2 2 5 4 6 -0 -0 2 3 4 -0 1 -2 -1 -2 -1 0 -1 -1 -1 0 -0 -1 2 -0 0 2 -1 -1 -0 1 0
2 -1 1 2 -2 4 6 4 0 -3 8 1 -2 0 -1 -2 0 0 -1 3 1 -2 0 -0 1 0 1 0 -1 -1 0 0 0
1 2 -1 1 3 5 5 6 2 -1 2 3 3 -7 0 -5 -1 -1 1 0 1 1 1 -0 1 1 1 2 0 -2 -3 -1 -2
1 5 1 -1 1 -1 2 4 6 5 -1 2 6 -2 -15 9 9 -1 -1 1 -3 -0 1 3 3 1 -1 -1 1 1 -1 -2 -2
1 2 2 1 1 2 3 2 6 5 8 -0 2 1 -5 -5 -8 1 2 2 -1 1 -0 -1 -2 -0 -0 -2 0 0 1 1 -1
1 2 1 1 1 -2 3 4 0 0 1 21 -10 77 -13 -3 -4 -8 -0 0 8 2 4 -1 2 2 1 -0 2 2 -2 -3 -1
Height
3185 3185 3185 3185 3184 3183 3182 3181 3180 3180 3180 3181 3180 3179 3179 3179 3179 3179 3179 3178 3178 3177 3176 3174 3173 3172 3170 3168 3166 3165 3163 3160 3158
3185 3185 3184 3184 3184 3184 3182 3181 3180 3180 3181 3181 3181 3181 3180 3180 3179 3179 3179 3178 3177 3176 3176 3174 3173 3172 3170 3169 3167 3166 3164 3162 3160
3185 3185 3185 3185 3184 3183 3182 3181 3180 3180 3180 3181 3181 3181 3180 3180 3180 3179 3179 3178 3178 3177 3176 3175 3174 3173 3171 3169 3168 3167 3165 3164 3162
3184 3184 3185 3185 3185 3184 3183 3181 3180 3180 3180 3180 3180 3181 3181 3181 3180 3180 3180 3179 3180 3179 3178 3177 3176 3174 3172 3171 3170 3168 3166 3164 3163
3183 3183 3183 3184 3184 3184 3183 3182 3181 3180 3180 3180 3180 3180 3180 3181 3181 3180 3180 3180 3180 3179 3178 3177 3176 3174 3173 3172 3170 3169 3167 3166 3163
3182 3182 3182 3181 3183 3183 3183 3182 3181 3180 3179 3179 3179 3180 3180 3180 3181 3181 3180 3180 3179 3179 3179 3178 3177 3176 3174 3173 3171 3170 3168 3167 3165
3181 3181 3181 3181 3180 3181 3181 3181 3181 3180 3179 3179 3179 3179 3179 3179 3180 3180 3180 3180 3180 3179 3179 3178 3176 3175 3174 3172 3171 3170 3168 3167 3165
3178 3178 3179 3180 3179 3179 3179 3180 3179 3179 3179 3178 3178 3178 3178 3178 3178 3179 3179 3179 3179 3179 3178 3178 3176 3175 3174 3172 3170 3169 3167 3166 3164
3175 3175 3176 3177 3178 3177 3177 3177 3178 3177 3177 3177 3176 3176 3177 3176 3177 3177 3178 3178 3178 3178 3177 3177 3176 3174 3173 3171 3170 3168 3167 3165 3163
3171 3171 3172 3173 3175 3175 3174 3174 3175 3175 3175 3175 3175 3175 3175 3175 3175 3175 3176 3176 3177 3177 3176 3175 3175 3173 3172 3170 3168 3167 3165 3164 3162
3165 3166 3167 3169 3170 3170 3171 3171 3171 3172 3172 3172 3173 3173 3173 3173 3172 3173 3173 3174 3174 3174 3174 3173 3173 3172 3171 3170 3168 3166 3164 3162 3160
3159 3160 3162 3164 3165 3165 3166 3167 3167 3168 3169 3169 3169 3169 3169 3171 3171 3171 3171 3171 3171 3171 3172 3172 3171 3170 3169 3168 3167 3165 3163 3162 3160
3152 3153 3155 3157 3159 3160 3161 3162 3163 3164 3164 3166 3166 3167 3166 3166 3168 3168 3168 3168 3168 3168 3168 3169 3168 3168 3167 3166 3165 3164 3162 3161 3159
3144 3145 3148 3150 3152 3154 3155 3156 3157 3158 3158 3160 3161 3162 3163 3162 3162 3164 3164 3165 3165 3165 3165 3164 3165 3164 3164 3164 3163 3162 3160 3159 3158
3135 3137 3140 3142 3145 3146 3148 3149 3151 3153 3154 3155 3155 3155 3156 3157 3157 3158 3159 3160 3161 3161 3161 3160 3161 3160 3161 3160 3159 3158 3158 3156 3155
3124 3127 3130 3133 3135 3139 3141 3143 3144 3145 3148 3147 3148 3149 3150 3151 3152 3153 3154 3156 3156 3157 3156 3156 3156 3156 3156 3156 3155 3155 3154 3153 3151
3113 3116 3119 3123 3125 3129 3131 3133 3136 3138 3140 3140 3141 3141 3143 3144 3146 3148 3148 3149 3150 3151 3151 3151 3151 3151 3151 3151 3150 3151 3150 3149 3147
3103 3106 3109 3112 3115 3118 3121 3124 3127 3129 3130 3132 3133 3131 3134 3137 3140 3141 3142 3143 3143 3144 3145 3145 3145 3145 3145 3145 3145 3145 3145 3145 3144
3090 3093 3097 3101 3103 3106 3111 3114 3117 3120 3121 3123 3123 3123 3126 3128 3130 3133 3135 3135 3137 3137 3138 3138 3138 3138 3138 3139 3139 3139 3139 3139 3138
3077 3080 3084 3088 3092 3096 3100 3103 3106 3109 3111 3114 3115 3108 3116 3119 3120 3122 3126 3127 3129 3130 3130 3130 3131 3131 3131 3132 3132 3131 3131 3131 3130